When you browse on this site, cookies collect data to enhance your experience and personalize the content and advertising you see.
Visit our Privacy Policy to learn more. By continuing to use the site, you agree to this use of cookies and data.

Hourly Weather Kolodiha

Today, 12 August, Wednesday

Time Temperature Precipitation Wind Pressure Humidity
00:00 +12°C° 0.1 mm 3 mps 747 mmHg 93%
01:00 +12°C° 0.1 mm 3 mps 747 mmHg 94%
02:00 +12°C° 0 mm 3 mps 747 mmHg 95%
03:00 +12°C° 0.2 mm 3 mps 747 mmHg 95%
04:00 +12°C° 0.2 mm 3 mps 747 mmHg 96%
05:00 +12°C° 0.2 mm 4 mps 747 mmHg 96%
06:00 +12°C° 0.2 mm 4 mps 747 mmHg 95%
07:00 +12°C° 0.2 mm 4 mps 747 mmHg 95%
08:00 +12°C° 0 mm 4 mps 747 mmHg 94%
09:00 +12°C° 0.1 mm 4 mps 747 mmHg 93%
10:00 +12°C° 0.1 mm 4 mps 747 mmHg 92%
11:00 +12°C° 0.1 mm 4 mps 747 mmHg 92%
12:00 +12°C° 0 mm 4 mps 748 mmHg 89%
13:00 +13°C° 0 mm 4 mps 748 mmHg 86%
14:00 +14°C° 0 mm 4 mps 748 mmHg 82%
15:00 +14°C° 0.1 mm 3 mps 748 mmHg 80%
16:00 +14°C° 0.1 mm 3 mps 748 mmHg 77%
17:00 +16°C° 0.1 mm 2 mps 748 mmHg 75%
18:00 +15°C° 0 mm 2 mps 748 mmHg 78%
19:00 +14°C° 0 mm 2 mps 748 mmHg 82%
20:00 +13°C° 0 mm 1 mps 748 mmHg 85%
21:00 +12°C° 0 mm 2 mps 748 mmHg 85%
22:00 +10°C° 0 mm 2 mps 748 mmHg 86%
23:00 +10°C° 0 mm 2 mps 748 mmHg 86%

Tomorrow, 13 August, Thursday

Time Temperature Precipitation Wind Pressure Humidity
00:00 +9°C° 0 mm 2 mps 748 mmHg 88%
01:00 +8°C° 0 mm 2 mps 748 mmHg 89%
02:00 +7°C° 0 mm 2 mps 748 mmHg 91%
03:00 +8°C° 0 mm 2 mps 748 mmHg 90%
04:00 +8°C° 0 mm 2 mps 748 mmHg 89%
05:00 +8°C° 0 mm 2 mps 748 mmHg 88%
06:00 +10°C° 0 mm 2 mps 748 mmHg 81%
07:00 +11°C° 0 mm 3 mps 748 mmHg 74%
08:00 +13°C° 0 mm 3 mps 748 mmHg 67%
09:00 +14°C° 0 mm 3 mps 748 mmHg 61%
10:00 +16°C° 0 mm 3 mps 748 mmHg 54%
11:00 +18°C° 0 mm 3 mps 748 mmHg 48%
12:00 +17°C° 0 mm 3 mps 748 mmHg 50%
13:00 +17°C° 0 mm 3 mps 748 mmHg 53%
14:00 +17°C° 0 mm 3 mps 748 mmHg 55%
15:00 +17°C° 0 mm 3 mps 748 mmHg 59%
16:00 +16°C° 0 mm 2 mps 748 mmHg 63%
17:00 +16°C° 0 mm 2 mps 748 mmHg 66%
18:00 +15°C° 0.1 mm 2 mps 748 mmHg 73%
19:00 +13°C° 0.1 mm 2 mps 748 mmHg 79%
20:00 +12°C° 0.1 mm 2 mps 748 mmHg 85%
21:00 +11°C° 0 mm 1 mps 748 mmHg 88%
22:00 +10°C° 0 mm 1 mps 748 mmHg 90%
23:00 +9°C° 0 mm 1 mps 748 mmHg 92%

Day after tomorrow, 14 August, Friday

Time Temperature Precipitation Wind Pressure Humidity
00:00 +9°C° 0 mm 1 mps 749 mmHg 94%
01:00 +9°C° 0 mm 1 mps 749 mmHg 95%
02:00 +8°C° 0 mm 1 mps 749 mmHg 96%
03:00 +7°C° 0 mm 2 mps 749 mmHg 96%
04:00 +7°C° 0 mm 2 mps 749 mmHg 96%
05:00 +7°C° 0 mm 2 mps 749 mmHg 96%
06:00 +9°C° 0 mm 2 mps 749 mmHg 87%
07:00 +12°C° 0 mm 2 mps 749 mmHg 78%
08:00 +14°C° 0 mm 2 mps 749 mmHg 70%
09:00 +15°C° 0 mm 2 mps 749 mmHg 62%
10:00 +17°C° 0 mm 2 mps 749 mmHg 55%
11:00 +18°C° 0 mm 2 mps 749 mmHg 47%
12:00 +19°C° 0 mm 2 mps 749 mmHg 46%
13:00 +19°C° 0 mm 2 mps 749 mmHg 45%
14:00 +20°C° 0 mm 2 mps 749 mmHg 43%
15:00 +19°C° 0 mm 2 mps 749 mmHg 48%
16:00 +19°C° 0 mm 2 mps 749 mmHg 53%
17:00 +19°C° 0 mm 2 mps 749 mmHg 57%
18:00 +18°C° 0 mm 1 mps 749 mmHg 63%
19:00 +15°C° 0 mm 1 mps 749 mmHg 69%
20:00 +13°C° 0 mm 1 mps 749 mmHg 75%
21:00 +12°C° 0 mm 1 mps 749 mmHg 78%
22:00 +12°C° 0 mm 1 mps 749 mmHg 81%
23:00 +11°C° 0 mm 1 mps 749 mmHg 84%

15 August, Saturday

Time Temperature Precipitation Wind Pressure Humidity
00:00 +11°C° 0 mm 1 mps 750 mmHg 86%
01:00 +11°C° 0 mm 1 mps 750 mmHg 87%
02:00 +10°C° 0 mm 1 mps 750 mmHg 89%
03:00 +10°C° 0 mm 1 mps 750 mmHg 88%
04:00 +10°C° 0 mm 1 mps 749 mmHg 87%
05:00 +10°C° 0 mm 1 mps 749 mmHg 87%
06:00 +12°C° 0 mm 1 mps 750 mmHg 79%
07:00 +14°C° 0 mm 1 mps 750 mmHg 72%
08:00 +16°C° 0 mm 1 mps 750 mmHg 64%
09:00 +19°C° 0 mm 1 mps 750 mmHg 59%
10:00 +20°C° 0 mm 1 mps 749 mmHg 54%
11:00 +22°C° 0 mm 1 mps 749 mmHg 48%
12:00 +22°C° 0 mm 1 mps 749 mmHg 47%
13:00 +23°C° 0 mm 2 mps 749 mmHg 46%
14:00 +23°C° 0 mm 2 mps 749 mmHg 45%
15:00 +23°C° 0 mm 1 mps 748 mmHg 50%
16:00 +22°C° 0 mm 1 mps 748 mmHg 55%
17:00 +22°C° 0 mm 1 mps 748 mmHg 60%
18:00 +20°C° 0 mm 1 mps 748 mmHg 66%
19:00 +18°C° 0 mm 1 mps 748 mmHg 72%
20:00 +15°C° 0 mm 1 mps 748 mmHg 78%
21:00 +14°C° 0 mm 1 mps 748 mmHg 82%
22:00 +14°C° 0 mm 1 mps 747 mmHg 85%
23:00 +13°C° 0 mm 1 mps 747 mmHg 89%

16 August, Sunday

Time Temperature Precipitation Wind Pressure Humidity
00:00 +13°C° 0 mm 1 mps 747 mmHg 92%
01:00 +13°C° 0 mm 1 mps 747 mmHg 94%
02:00 +13°C° 0 mm 1 mps 747 mmHg 97%
03:00 +13°C° 0 mm 1 mps 747 mmHg 97%
04:00 +13°C° 0 mm 1 mps 747 mmHg 98%
05:00 +13°C° 0 mm 1 mps 746 mmHg 98%
06:00 +15°C° 0 mm 2 mps 746 mmHg 92%
07:00 +16°C° 0 mm 2 mps 746 mmHg 86%
08:00 +18°C° 0 mm 2 mps 746 mmHg 79%
09:00 +20°C° 0 mm 2 mps 746 mmHg 74%
10:00 +21°C° 0 mm 3 mps 746 mmHg 70%
11:00 +24°C° 0 mm 3 mps 746 mmHg 65%
12:00 +23°C° 0 mm 4 mps 745 mmHg 60%
13:00 +25°C° 0 mm 4 mps 745 mmHg 54%
14:00 +25°C° 0 mm 5 mps 745 mmHg 49%
15:00 +25°C° 0 mm 4 mps 745 mmHg 54%
16:00 +24°C° 0 mm 3 mps 744 mmHg 59%
17:00 +24°C° 0 mm 3 mps 744 mmHg 63%
18:00 +21°C° 0 mm 3 mps 744 mmHg 70%
19:00 +20°C° 0 mm 3 mps 744 mmHg 77%
20:00 +18°C° 0 mm 2 mps 744 mmHg 85%
21:00 +17°C° 0 mm 2 mps 744 mmHg 89%
22:00 +16°C° 0 mm 2 mps 744 mmHg 92%
23:00 +16°C° 0 mm 2 mps 744 mmHg 96%

17 August, Monday

Time Temperature Precipitation Wind Pressure Humidity
00:00 +15°C° 0 mm 2 mps 744 mmHg 97%
01:00 +15°C° 0 mm 2 mps 744 mmHg 97%
02:00 +14°C° 0 mm 2 mps 744 mmHg 98%
03:00 +14°C° 0 mm 2 mps 744 mmHg 97%
04:00 +13°C° 0 mm 2 mps 744 mmHg 95%
05:00 +13°C° 0 mm 2 mps 745 mmHg 94%
06:00 +14°C° 0 mm 2 mps 745 mmHg 84%
07:00 +16°C° 0 mm 2 mps 745 mmHg 73%
08:00 +18°C° 0 mm 2 mps 745 mmHg 63%
09:00 +19°C° 0 mm 2 mps 745 mmHg 57%
10:00 +20°C° 0 mm 2 mps 745 mmHg 51%
11:00 +22°C° 0 mm 3 mps 745 mmHg 45%
12:00 +22°C° 0 mm 3 mps 744 mmHg 44%
13:00 +24°C° 0 mm 3 mps 744 mmHg 43%
14:00 +23°C° 0 mm 4 mps 744 mmHg 41%
15:00 +24°C° 0 mm 3 mps 744 mmHg 45%
16:00 +22°C° 0 mm 3 mps 743 mmHg 49%
17:00 +21°C° 0 mm 3 mps 743 mmHg 53%
18:00 +19°C° 0 mm 2 mps 743 mmHg 57%
19:00 +18°C° 0 mm 2 mps 743 mmHg 61%
20:00 +16°C° 0 mm 2 mps 743 mmHg 65%
21:00 +16°C° 0 mm 2 mps 743 mmHg 68%
22:00 +15°C° 0 mm 2 mps 743 mmHg 71%
23:00 +14°C° 0 mm 1 mps 743 mmHg 73%
Show more